DW4230 Weather Reports


time (UTC)temp
F
wind
direction
speed
knots
gust
knots
rain 1hr
in
rain 24hr
in
rain mn
in
humidity
%
barometer
mb
20260831080123 67 355 2.6 5.2 0.00 0.68 0.14 95 1016.1
20260831074503 68 360 0.0 6.1 0.00 0.68 0.14 95 1015.9
20260831073041 68 73 0.0 2.6 0.00 0.68 0.14 95 1015.8
20260831071606 68 73 0.9 2.6 0.00 0.68 0.14 95 1015.6
20260831070035 68 73 0.0 2.6 0.00 0.68 0.14 95 1015.5
20260831064511 68 73 0.0 3.5 0.00 0.68 0.14 95 1015.5
20260831063051 68 73 0.9 3.5 0.00 0.68 0.14 95 1015.5
20260831061503 68 73 0.0 4.3 0.00 0.68 0.14 95 1015.5
20260831060032 69 73 0.0 6.1 0.00 0.68 0.14 95 1015.4
20260831054612 69 355 0.9 2.6 0.07 0.68 0.14 94 1015.3
20260831053057 69 356 0.0 0.0 0.17 0.68 0.14 94 1015.3
20260831051516 69 356 0.0 0.0 0.32 0.68 0.14 94 1015.2
20260831050057 69 356 0.0 2.6 0.45 0.68 0.14 94 1015.2
20260831044540 69 9 0.9 5.2 0.52 0.60 0.06 94 1015.4
20260831043103 70 297 0.0 3.5 0.47 0.51 0.51 94 1015.6
20260831041532 70 283 0.9 4.3 0.34 0.35 0.35 94 1015.6
20260831040106 70 273 2.6 7.0 0.23 0.23 0.23 94 1015.8
20260831034536 70 252 1.7 7.0 0.08 0.08 0.08 93 1015.8
20260831033112 71 259 2.6 7.0 0.04 0.04 0.04 93 1015.8
20260831031551 71 277 0.9 8.7 0.01 0.01 0.01 92 1015.9
20260831030020 71 277 1.7 7.0 0.00 0.00 0.00 91 1016.1
20260831024559 71 297 3.5 9.6 0.00 0.00 0.00 91 1016.1
20260831023033 71 252 4.3 11.3 0.00 0.00 0.00 91 1015.7
20260831021616 72 272 5.2 17.4 0.00 0.00 0.00 90 1016.1
20260831020031 72 285 5.2 20.9 0.00 0.00 0.00 90 1016.1
20260831014611 72 274 6.1 15.6 0.00 0.00 0.00 89 1015.9
20260831013043 72 262 4.3 17.4 0.00 0.00 0.00 89 1016.0
20260831011510 72 283 7.0 14.8 0.00 0.00 0.00 89 1015.9
20260831010100 72 283 6.1 18.2 0.00 0.00 0.00 88 1015.8
20260831004519 72 283 6.1 15.6 0.00 0.00 0.00 88 1015.9
20260831003104 72 207 6.1 14.8 0.00 0.00 0.00 88 1015.8
20260831001528 72 272 6.1 15.6 0.00 0.00 0.00 89 1015.7
20260831000105 72 124 3.5 18.2 0.00 0.00 0.00 89 1015.6
20260830234525 72 277 5.2 18.2 0.00 0.00 0.00 88 1015.4
20260830233101 72 124 5.2 12.2 0.00 0.00 0.00 88 1015.5
20260830231531 72 257 2.6 13.9 0.00 0.00 0.00 88 1015.4
20260830230003 72 124 6.1 16.5 0.00 0.00 0.00 88 1015.4
20260830224542 72 124 6.1 17.4 0.00 0.00 0.00 87 1015.4
20260830223012 73 124 6.1 14.8 0.00 0.00 0.00 87 1015.5
20260830220108 73 275 7.0 17.4 0.00 0.00 0.00 87 1015.6
20260830214532 73 255 4.3 13.9 0.00 0.00 0.00 86 1016.0
20260830213113 73 269 3.5 14.8 0.00 0.00 0.00 85 1015.9
20260830211528 73 124 4.3 13.0 0.00 0.00 0.00 84 1016.0
20260830210108 74 272 5.2 15.6 0.00 0.00 0.00 81 1016.1
20260830204542 74 272 6.1 13.0 0.00 0.00 0.00 82 1016.1
20260830203012 74 255 2.6 13.0 0.00 0.00 0.00 81 1016.0
20260830201547 74 124 6.1 16.5 0.00 0.00 0.00 79 1016.1
20260830200016 76 281 4.3 14.8 0.00 0.00 0.00 77 1016.2
20260830194556 76 124 3.5 11.3 0.00 0.00 0.00 76 1016.4
20260830193030 78 124 5.2 14.8 0.00 0.00 0.00 72 1016.5
20260830191555 78 243 3.5 13.9 0.00 0.00 0.00 71 1016.5
20260830190026 76 273 7.8 13.9 0.00 0.00 0.00 74 1016.8
20260830184608 77 265 5.2 13.0 0.00 0.00 0.00 73 1017.1
20260830183044 76 124 7.0 15.6 0.00 0.00 0.00 76 1017.2
20260830181511 76 258 4.3 16.5 0.00 0.00 0.00 77 1017.4
20260830180056 76 259 3.5 13.0 0.00 0.00 0.00 74 1017.6
20260830174528 76 124 5.2 15.6 0.00 0.00 0.00 76 1017.7
20260830173100 76 261 8.7 16.5 0.00 0.00 0.00 78 1017.7
20260830171524 75 124 8.7 15.6 0.00 0.00 0.00 80 1017.7
20260830170049 76 271 8.7 15.6 0.00 0.00 0.00 80 1017.8
20260830164502 77 257 5.2 11.3 0.00 0.00 0.00 79 1017.7
20260830163039 76 260 5.2 13.0 0.00 0.00 0.00 79 1017.8
20260830161506 76 124 7.0 13.9 0.00 0.00 0.00 81 1017.8
20260830160047 75 287 6.1 13.0 0.00 0.00 0.00 81 1018.3
20260830154512 75 264 4.3 14.8 0.00 0.00 0.00 82 1018.4
20260830153050 75 254 5.2 13.9 0.00 0.00 0.00 83 1018.6
20260830151513 75 124 5.2 13.9 0.00 0.00 0.00 83 1018.7
20260830150113 74 274 6.1 13.0 0.00 0.00 0.00 83 1018.8
20260830144505 74 308 5.2 13.0 0.00 0.00 0.00 82 1018.9
20260830143043 73 124 2.6 13.9 0.00 0.00 0.00 83 1019.1
20260830141506 74 124 4.3 11.3 0.00 0.00 0.00 82 1019.1
20260830140052 74 269 3.5 8.7 0.00 0.00 0.00 79 1019.2
20260830134533 73 124 3.5 7.8 0.00 0.00 0.00 78 1019.3
20260830133055 73 279 4.3 10.4 0.00 0.00 0.00 80 1019.6
20260830131528 72 289 4.3 8.7 0.00 0.00 0.00 82 1019.7
20260830130111 71 124 4.3 8.7 0.00 0.00 0.00 85 1019.8
20260830124524 70 278 3.5 8.7 0.00 0.00 0.00 87 1019.7
20260830123059 69 252 4.3 10.4 0.00 0.00 0.00 87 1019.9
20260830121516 70 320 3.5 11.3 0.00 0.00 0.00 88 1019.8
20260830120058 69 262 1.7 12.2 0.00 0.00 0.00 89 1019.8
20260830114521 69 288 4.3 10.4 0.00 0.00 0.00 89 1019.6
20260830113102 68 273 5.2 12.2 0.00 0.00 0.00 89 1019.5
20260830111531 69 276 4.3 10.4 0.00 0.00 0.00 90 1019.7
20260830110001 68 260 3.5 8.7 0.00 0.00 0.00 90 1019.7
20260830104543 68 264 2.6 8.7 0.00 0.00 0.00 91 1019.7
20260830103006 68 285 3.5 9.6 0.00 0.00 0.00 91 1019.8
20260830101545 68 274 2.6 11.3 0.00 0.00 0.00 90 1019.8
20260830100109 67 292 3.5 9.6 0.00 0.00 0.00 91 1019.9
20260830094529 67 281 2.6 8.7 0.00 0.00 0.00 91 1019.7
20260830093104 67 124 2.6 9.6 0.00 0.00 0.00 91 1019.8
20260830083005 67 283 1.7 6.1 0.00 0.00 0.00 89 1020.5
20260830081542 67 285 2.6 8.7 0.00 0.00 0.00 89 1020.4